521  
ASUS43 KJKL 252210  
RWRJKL  
 
EAST KENTUCKY HOURLY WEATHER ROUNDUP  
NATIONAL WEATHER SERVICE JACKSON KY  
600 PM EDT FRI MAY 25 2018  
 
NOTE: "FAIR" INDICATES FEW OR NO CLOUDS BELOW 12,000 FEET WITH  
NO SIGNIFICANT WEATHER AND/OR S TO VISIBILITY
.  
 
* THESE REPORTS ARE NOT UNDER NWS QUALITY CONTROL AND MAY NOT  
REPORT WEATHER SUCH AS PRECIPITATION AND FOG.
 
 
KYZ079-080-083-085-087-088-110-112-115-119-120-252300   
..EASTERN KENTUCKY
 
 
 
CITY SKY/WX TMP DP RH WIND PRES REMARKS
 
JACKSON N/A 85 66 53 CALM 29.94F  
LONDON N/A 86 63 45 NW6 29.93S  
SOMERSET* N/A 86 63 45 MISG 29.93R  
MONTICELLO* N/A 88 64 44 W9G16 29.93S  
WILLIAMSBURG* N/A 82 66 57 SE3 29.94R  
MIDDLESBORO* N/A 86 67 52 SW3 29.94S  
HARLAN APT* N/A 83 65 54 S5 29.96S  
PIKE CO APT* N/A 78 71 77 E3 29.95S  
BIG SANDY APT* N/A 83 69 62 SE5 29.94F  
MOREHEAD APT* N/A 84 63 48 VRB5 29.93S  
ASHLAND* N/A 83 68 60 CALM 29.89F  

 
 
KYZ035-036-041-042-044-050-067-078-099-252300   
..CENTRAL KENTUCKY
 
 
 
CITY SKY/WX TMP DP RH WIND PRES REMARKS
 
MT STERLING* N/A 84 64 51 W6 29.93S  
FLEMING/MASON* N/A 85 61 44 SW5 29.91F  
DANVILLE* N/A 86 63 45 W6 29.92F  
LEXINGTON PTSUNNY 85 62 46 SW5 29.91F  
FRANKFORT N/A 85 60 42 SW6 29.88F  
LOUISVILLE PTSUNNY 88 58 36 S10G18 29.86F  
LEBANON* N/A 86 63 45 SW6 29.90F  
GLASGOW* N/A 89 60 37 SW5 29.90F  
BOWLING GREEN N/A 88 62 41 VRB3 29.88F  

 
 
KYZ091>093-OHZ055-061-077-WVZ005-015-034-035-042-252300   
..SOUTHERN OHIO/WEST VIRGINIA
 
 
 
CITY SKY/WX TMP DP RH WIND PRES REMARKS
 
COVINGTON N/A 84 58 40 SW6 29.89F  
COLUMBUS N/A 87 53 31 SW10 29.87F  
DAYTON N/A 83 55 38 S7 29.89F  
WILMINGTON N/A 83 58 42 W8 29.90S  
HUNTINGTON N/A 86 68 54 W5 29.89F  
CHARLESTON N/A 86 65 49 SW9 29.90F  
PINEVILLE* PTSUNNY 81 66 60 MISG 30.01F  
BECKLEY CLOUDY 77 62 59 S6 30.01F  
BLUEFIELD CLOUDY 74 62 66 S8 30.04F  
LOGAN CO APT* N/A 82 68 61 CALM 29.95F  

 
 
VAZ002-007-008-TNZ017-027-036-066-071-252300   
..SOUTHWEST VIRGINIA/EAST TENNESSEE
 
 
 
CITY SKY/WX TMP DP RH WIND PRES REMARKS
 
WISE* N/A 79 64 61 SW7 30.03S  
JONESVILLE* LGT RAIN 82 66 57 CALM 29.97S  
ABINGDON* CLOUDY 81 68 65 W5 30.00S  
BRISTOL PTSUNNY 82 66 58 SE5 29.96F  
MORRISTOWN* CLEAR 81 70 69 S5 29.95F  
SEVIERVILLE* CLEAR 82 68 61 VRB7 29.94F  
KNOXVILLE CLOUDY 81 69 67 SE9 29.93R  
LAFOLLETTE* CLEAR 86 68 54 CALM 29.96S  
OAK RIDGE N/A 89 66 46 VRB3 29.93S HX 91  
CROSSVILLE N/A 82 62 50 W6 29.98S  
NASHVILLE PTSUNNY 83 67 58 SW10G18 29.91S  

 
   
..KEY TO REMARKS
 
 
VSB - VISIBILITY IN MILES  
WCI - WIND CHILL INDEX  
HX - HEAT INDEX  
 

 
 
 
CLICK HERE TO GO TO PREVIOUS BULLETINS.

The Nexlab KY Page Main Text Page